Tracking 19832 objects as of 25-Aug-2019
HD Live streaming from Space Station
objects crossing your sky now

GLOBALSTAR M024

Track GLOBALSTAR M024 now!
10-day predictions
GLOBALSTAR M024 is classified as:


NORAD ID: 25883
Int'l Code: 1999-043A
Perigee: 2,116.5 km
Apogee: 2,117.9 km
Inclination: 52.0 °
Period: 129.7 minutes
Semi major axis: 8488 km
RCS: 2.6378 m2 (large)
Launch date: August 17, 1999
Source: Globalstar (GLOB)
Launch site: AIR FORCE EASTERN TEST RANGE (AFETR)
aabbcc
Your satellite tracking list
Your tracking list is empty




NASA's NSSDC Master Catalog

Two Line Element Set (TLE):
1 25883U 99043A   19235.95459948 -.00000130 +00000-0 -23268-2 0  9993
2 25883 052.0016 133.4832 0000817 224.1547 216.3477 11.10140801878951
Source of the keplerian elements: AFSPC